Main page
Satellite images Climate Cyclones Lightning AirportsFAQ Languages Contact Newsletter About
Weather : Europe Africa North America South America Asia Australia-Oceania Others

phuket-th, Phuket, Phuket International Airport

48565

latitude: , longitude: Thailand, elevation: 08-07N m


METAR: VTSP 221700Z 29008KT 260V320 8000 FEW020 28/23 Q1012 NOSIG